TimeMST,TemperatureF,Dew PointF,Humidity,Sea Level PressureIn,VisibilityMPH,Wind Direction,Wind SpeedMPH,Gust SpeedMPH,PrecipitationIn,Events,Conditions,WindDirDegrees,DateUTC
12:15 AM,28.4,8.6,43,29.70,10.0,SW,5.8,16.1,N/A,,Mostly Cloudy,230,2012-02-26 07:15:00
12:35 AM,28.4,8.6,43,29.71,10.0,West,9.2,18.4,N/A,,Mostly Cloudy,260,2012-02-26 07:35:00
1:15 AM,28.4,8.6,43,29.72,10.0,SSW,10.4,21.9,N/A,,Partly Cloudy,200,2012-02-26 08:15:00
2:35 AM,28.4,6.8,40,29.75,10.0,SSW,12.7,29.9,N/A,,Mostly Cloudy,200,2012-02-26 09:35:00
2:55 AM,26.6,6.8,43,29.75,10.0,South,16.1,31.1,N/A,,Overcast,190,2012-02-26 09:55:00
3:15 AM,26.6,6.8,43,29.75,10.0,SSW,15.0,31.1,N/A,,Overcast,210,2012-02-26 10:15:00
3:55 AM,26.6,6.8,43,29.77,10.0,SSW,15.0,29.9,N/A,,Overcast,210,2012-02-26 10:55:00
4:15 AM,26.6,6.8,43,29.78,10.0,SSW,16.1,28.8,N/A,,Overcast,200,2012-02-26 11:15:00
5:15 AM,26.6,5.0,40,29.80,10.0,SSW,15.0,31.1,N/A,,Overcast,200,2012-02-26 12:15:00
5:35 AM,26.6,5.0,40,29.80,10.0,SSW,19.6,29.9,N/A,,Overcast,210,2012-02-26 12:35:00
5:55 AM,26.6,5.0,40,29.81,10.0,South,18.4,32.2,N/A,,Overcast,190,2012-02-26 12:55:00
7:15 AM,26.6,5.0,40,29.85,10.0,SW,15.0,25.3,N/A,,Overcast,220,2012-02-26 14:15:00
7:55 AM,26.6,3.2,37,29.87,10.0,SSW,20.7,31.1,N/A,,Overcast,200,2012-02-26 14:55:00
8:15 AM,26.6,3.2,37,29.88,10.0,SSW,24.2,33.4,N/A,,Mostly Cloudy,200,2012-02-26 15:15:00
8:35 AM,26.6,3.2,37,29.89,10.0,South,23.0,34.5,N/A,,Mostly Cloudy,190,2012-02-26 15:35:00
8:55 AM,26.6,3.2,37,29.90,10.0,SSW,20.7,38.0,N/A,,Mostly Cloudy,200,2012-02-26 15:55:00
9:15 AM,26.6,3.2,37,29.91,10.0,South,26.5,42.6,N/A,,Overcast,190,2012-02-26 16:15:00
9:35 AM,28.4,3.2,34,29.91,10.0,SSW,20.7,29.9,N/A,,Overcast,200,2012-02-26 16:35:00
9:55 AM,28.4,3.2,34,29.92,10.0,South,24.2,31.1,N/A,,Overcast,190,2012-02-26 16:55:00
10:15 AM,28.4,3.2,34,29.92,10.0,SSW,23.0,32.2,N/A,,Scattered Clouds,200,2012-02-26 17:15:00
10:35 AM,30.2,3.2,32,29.93,10.0,South,21.9,29.9,N/A,,Clear,190,2012-02-26 17:35:00
10:55 AM,30.2,3.2,32,29.93,10.0,SSW,18.4,24.2,N/A,,Clear,200,2012-02-26 17:55:00
11:15 AM,30.2,3.2,32,29.93,10.0,South,17.3,27.6,N/A,,Clear,190,2012-02-26 18:15:00
12:15 PM,32.0,3.2,30,29.94,10.0,SSW,19.6,32.2,N/A,,Clear,200,2012-02-26 19:15:00
12:35 PM,32.0,1.4,27,29.94,10.0,South,17.3,32.2,N/A,,Clear,180,2012-02-26 19:35:00
12:55 PM,33.8,1.4,25,29.94,10.0,SSW,19.6,33.4,N/A,,Clear,200,2012-02-26 19:55:00
1:15 PM,33.8,1.4,25,29.93,10.0,South,19.6,27.6,N/A,,Clear,190,2012-02-26 20:15:00
1:35 PM,32.0,1.4,27,29.93,10.0,South,19.6,32.2,N/A,,Clear,190,2012-02-26 20:35:00
1:55 PM,32.0,-0.4,25,29.93,10.0,South,15.0,26.5,N/A,,Clear,180,2012-02-26 20:55:00
2:15 PM,33.8,-0.4,23,29.93,10.0,South,15.0,27.6,N/A,,Clear,190,2012-02-26 21:15:00
2:35 PM,33.8,-0.4,23,29.94,10.0,South,16.1,23.0,N/A,,Clear,190,2012-02-26 21:35:00
3:15 PM,33.8,-0.4,23,29.94,10.0,SSW,15.0,21.9,N/A,,Clear,200,2012-02-26 22:15:00
3:35 PM,33.8,-0.4,23,29.94,10.0,SSW,15.0,20.7,N/A,,Clear,210,2012-02-26 22:35:00
3:55 PM,33.8,-0.4,23,29.95,10.0,SSW,18.4,21.9,N/A,,Clear,200,2012-02-26 22:55:00
4:15 PM,33.8,-0.4,23,29.95,10.0,SW,11.5,21.9,N/A,,Clear,230,2012-02-26 23:15:00
4:35 PM,32.0,-0.4,25,29.95,10.0,SW,11.5,18.4,N/A,,Clear,220,2012-02-26 23:35:00
4:55 PM,32.0,1.4,27,29.95,10.0,SSW,12.7,19.6,N/A,,Clear,200,2012-02-26 23:55:00
5:15 PM,30.2,-0.4,27,29.95,10.0,SSW,10.4,17.3,N/A,,Clear,200,2012-02-27 00:15:00
5:35 PM,30.2,1.4,29,29.96,10.0,South,11.5,-,N/A,,Clear,190,2012-02-27 00:35:00
6:15 PM,28.4,3.2,34,29.97,10.0,SSW,11.5,-,N/A,,Clear,210,2012-02-27 01:15:00
6:35 PM,28.4,3.2,34,29.98,10.0,SW,9.2,-,N/A,,Clear,220,2012-02-27 01:35:00
6:55 PM,28.4,3.2,34,29.99,10.0,SSW,5.8,-,N/A,,Clear,210,2012-02-27 01:55:00
7:35 PM,26.6,3.2,37,29.99,10.0,South,6.9,-,N/A,,Clear,190,2012-02-27 02:35:00
7:55 PM,26.6,3.2,37,29.99,10.0,SSW,8.1,18.4,N/A,,Clear,210,2012-02-27 02:55:00
8:15 PM,24.8,3.2,40,29.99,10.0,SSW,4.6,-,N/A,,Clear,200,2012-02-27 03:15:00
8:35 PM,24.8,3.2,40,29.99,10.0,SSW,3.5,-,N/A,,Clear,210,2012-02-27 03:35:00
8:55 PM,24.8,3.2,40,30.00,10.0,Calm,Calm,-,N/A,,Clear,0,2012-02-27 03:55:00
9:15 PM,23.0,3.2,43,30.00,10.0,SSE,5.8,-,N/A,,Clear,160,2012-02-27 04:15:00
9:35 PM,23.0,3.2,43,30.00,10.0,South,5.8,-,N/A,,Clear,170,2012-02-27 04:35:00
9:55 PM,24.8,3.2,40,30.01,10.0,South,6.9,-,N/A,,Clear,180,2012-02-27 04:55:00
10:15 PM,23.0,3.2,43,30.01,10.0,South,4.6,-,N/A,,Clear,190,2012-02-27 05:15:00
10:35 PM,23.0,5.0,46,30.01,10.0,SE,9.2,-,N/A,,Clear,130,2012-02-27 05:35:00
10:55 PM,21.2,5.0,50,30.00,10.0,South,4.6,-,N/A,,Clear,170,2012-02-27 05:55:00
11:15 PM,21.2,5.0,50,30.00,10.0,South,4.6,-,N/A,,Clear,190,2012-02-27 06:15:00
11:35 PM,19.4,6.8,58,30.00,10.0,South,6.9,-,N/A,,Clear,180,2012-02-27 06:35:00
11:55 PM,19.4,6.8,58,30.00,10.0,SSE,5.8,-,N/A,,Clear,160,2012-02-27 06:55:00